Location: ????????
(41.2031°N, 22.5756°E)
Time: 17:18:29
(UTC+00:00)

Daily predictions for brighter satellites

Satellite Brightness Start Highest point End
(mag) Time Altitude Azimuth Time Altitude Azimuth Time Altitude Azimuth
Sich 1 3.0 15:27:59 10° N 15:32:22 87° E 15:36:41 10° S
Cosmos 482 Debris 4.2 15:31:17 10° NNW 15:32:36 17° NNE 15:34:01 10° ENE
Cosmos 1151 Rocket 3.3 15:29:49 10° SSE 15:33:53 45° E 15:37:58 10° NNE
Radarsat Rocket 4.1 15:30:42 10° SSE 15:36:46 75° ENE 15:43:35 10° NNW
Cosmos 1470 Rocket 4.4 15:33:17 10° NNE 15:36:59 27° ENE 15:40:39 10° SE
CZ-4C R/B 3.4 15:35:02 10° N 15:38:39 71° WNW 15:42:13 10° SSW
SL-8 Rocket 4.1 15:32:34 10° N 15:38:45 57° E 15:44:55 10° SSE
CZ-4B DEB 4.4 15:34:19 10° SSE 15:39:47 80° WSW 15:45:17 10° NNW
Cosmos 2341 Rocket 4.0 15:33:44 10° N 15:40:04 77° E 15:46:26 10° S
Cosmos 1515 Rocket 4.5 15:37:57 10° SSE 15:41:41 28° E 15:45:26 10° NNE
USA 281 4.5 15:37:27 10° E 15:41:42 19° NE 15:45:57 10° N
CORIOLIS 4.2 15:45:01 10° SSE 15:50:21 62° ENE 15:55:44 10° N
Cosmos 2285 Rocket 4.0 15:44:00 10° NNW 15:50:25 74° ENE 15:56:44 10° SSE
COSMO-SKYMED 1 3.7 15:47:01 10° NE 15:50:32 24° E 15:54:03 10° SSE
USA 267 4.4 15:46:50 10° ENE 15:51:53 25° NNE 15:56:57 10° NW
USA 81 4.1 15:47:07 10° N 15:52:21 61° E 15:57:34 10° SSE
Cosmos 2228 Rocket 4.5 15:50:50 10° SE 15:54:01 19° E 15:56:56 11° NE
X-37B 0.7 15:51:38 10° WSW 15:54:47 70° NNW 15:57:12 16° ENE
H-2A R/B 3.7 15:54:40 13° ENE 15:55:03 13° ENE 15:57:13 10° NE
BREEZE-M TANK 3.6 15:49:58 10° WNW 15:55:17 48° SW 15:58:28 10° SE
Cosmos 1689 Rocket 4.2 15:57:04 12° ESE 15:57:04 12° ESE 15:57:54 10° ESE
Meteor 1-4 Rocket 2.5 15:54:58 10° S 15:58:31 58° E 16:02:01 10° NNE
Cosmos 1812 4.1 15:57:35 10° SE 16:00:16 18° E 16:01:27 16° ENE
Cosmos 1328 Rocket 3.5 15:57:15 10° S 16:01:33 84° E 16:05:56 10° N
Cosmos 2181 Rocket 4.1 15:55:09 10° S 16:01:34 90° E 16:07:57 10° N
Cosmos 1939 Rocket 3.6 15:58:29 10° SE 16:01:53 30° ENE 16:05:20 10° N
CZ-4 R/B 3.1 16:05:25 14° NE 16:05:25 14° NE 16:06:42 10° NNE
Meteor 1-20 Rocket 4.4 15:58:37 10° N 16:04:30 87° W 16:10:17 10° S
Cosmos 2237 Rocket 4.4 16:01:57 10° W 16:05:54 19° NW 16:09:54 10° N
NOAA 11 4.1 16:00:44 10° SSE 16:06:05 65° ENE 16:11:29 10° N
Cosmos 1933 Rocket 4.0 16:02:56 10° N 16:07:09 39° ENE 16:11:18 10° SSE
CZ-4B R/B 3.3 16:01:57 10° S 16:07:16 79° WSW 16:12:35 10° NNW
Cosmos 1666 Rocket 4.2 16:03:49 10° NNW 16:08:11 60° W 16:12:33 10° S
Meteor 1-26 Rocket 4.4 16:03:37 10° S 16:09:38 85° E 16:15:41 10° N
Cosmos 1603 3.9 16:04:35 10° S 16:09:59 49° ESE 16:15:01 12° NE
H-2A R/B 3.9 16:06:18 10° S 16:10:19 41° W 16:14:14 10° NNW
Cosmos 44 4.4 16:05:10 10° NW 16:10:23 55° WSW 16:15:39 10° SSE
CZ-3B R/B 1.7 16:06:59 10° SSW 16:10:39 39° SE 16:11:30 26° E
Lacrosse 4 Rocket 3.3 16:09:28 10° SE 16:10:37 12° ESE 16:10:37 12° ESE
Cosmos 1602 3.6 16:07:48 10° N 16:11:42 67° E 16:15:33 10° SSE
SL-24 R/B 4.5 16:09:35 16° NE 16:11:56 30° E 16:15:11 10° SSE
Cosmos 1943 3.5 16:08:05 10° S 16:13:26 46° ESE 16:18:07 14° NE
Cosmos 1538 Rocket 4.0 16:11:42 10° SSW 16:17:03 87° ESE 16:22:29 10° NNE
Cosmos 2369 Rocket 2.2 16:12:20 10° NNW 16:17:57 57° ENE 16:23:29 10° SE
CENTAUR R/B 3.4 16:13:24 10° SSE 16:18:02 26° ESE 16:20:30 20° ENE
CZ-2D R/B 3.9 16:15:53 10° SE 16:19:18 32° ENE 16:22:45 10° N
Cosmos 1943 Rocket 2.2 16:13:55 10° NNW 16:19:30 86° WSW 16:25:06 10° SSE
Meteor 1-14 Rocket 4.3 16:13:54 10° N 16:19:52 66° ENE 16:25:48 10° SSE
H-2A R/B 3.6 16:18:36 10° N 16:22:28 36° WNW 16:26:25 10° SW
Okean O Rocket 2.3 16:19:34 10° S 16:23:51 56° W 16:28:10 10° NNW
Cosmos 1782 3.0 16:21:30 10° SSW 16:25:27 71° W 16:29:25 10° N
Okean-O 3.4 16:21:37 10° SE 16:25:27 29° ENE 16:29:18 10° N
Cosmos 1461 4.3 16:22:09 10° SSE 16:25:47 24° ESE 16:26:18 23° E
NOSS 3-2 (C) 4.2 16:21:12 10° SSE 16:25:49 28° ESE 16:27:40 24° E
SL-08 R/B 4.4 16:22:31 10° N 16:28:39 69° E 16:34:42 10° SSE
DEBRIS 4.4 16:17:48 10° WNW 16:31:42 46° N 16:34:05 27° ENE
ISS -1.7 16:31:00 10° NNW 16:32:58 16° N 16:32:58 16° N
Meteor 1-27 Rocket 4.4 16:32:42 10° SSE 16:37:24 29° E 16:37:41 29° E
SKYMED 2 3.4 16:34:31 10° NNE 16:38:48 81° ESE 16:43:08 10° S
ERS-2 2.5 16:36:10 11° N 16:39:40 65° WNW 16:43:17 10° SSW
Meteor 1-10 Rocket 4.3 16:36:10 10° S 16:41:38 55° E 16:46:16 14° NNE
Lacrosse 5 rocket 3.6 16:47:57 10° NW 16:49:14 11° NNW 16:50:15 10° N
NOSS 3-2 (A) 3.2 16:45:21 10° SSW 16:50:52 77° ESE 16:54:01 30° NE
SL-16 R/B 4.4 16:54:56 10° W 16:59:00 20° NW 17:03:06 10° N
CZ-4B R/B 3.6 16:56:30 10° NNW 16:59:04 23° WNW 17:01:40 10° SW
Cosmos 2239 Rocket 4.3 16:54:55 10° N 17:01:06 72° E 17:07:17 10° SSE
USA 215 3.2 16:59:21 34° NE 17:02:33 84° SE 17:09:05 10° SW
YAOGAN 1 4.0 17:09:19 26° N 17:09:19 26° N 17:11:15 10° N
Cosmos 1500 3.8 17:04:14 10° NNW 17:07:59 57° W 17:11:45 10° S
USA 238 DEB 3.5 17:03:32 10° SSW 17:10:05 90° ESE 17:13:06 36° NE
USA 238 3.5 17:03:37 10° SSW 17:10:11 89° ESE 17:13:10 37° NE
Cosmos 1656 Rocket 3.5 17:07:48 10° NNW 17:13:27 89° ENE 17:17:20 21° SSE
NOAA 15 4.5 17:10:40 10° SSE 17:15:57 86° ENE 17:21:16 10° NNW
MOS 1 Rocket 3.5 17:13:25 27° NNE 17:16:29 90° WNW 17:21:49 10° SSW
CZ-2C R/B 3.0 17:13:57 10° S 17:18:59 77° WSW 17:23:50 10° NNW
Cosmos 158 Rocket 4.3 17:14:13 10° SSW 17:19:07 60° WNW 17:20:54 37° N
Cosmos 1934 Rocket 3.8 17:17:41 10° N 17:24:04 75° E 17:30:20 10° SSE
USA 281 3.1 17:18:44 10° SSE 17:25:18 85° ENE 17:31:55 10° NNW
CSL-04 Debris 4.4 17:27:30 56° N 17:27:30 56° N 17:31:51 10° N
COSMO-SKYMED 1 4.3 17:23:06 11° N 17:26:41 30° WNW 17:30:28 10° SW
Cosmos 1238 Rocket 3.7 17:22:56 10° NNW 17:27:03 59° W 17:32:02 10° S
X-37B 3.5 17:28:40 10° WNW 17:29:28 16° WNW 17:29:28 16° WNW
H-2A R/B 2.6 17:35:17 48° NNW 17:35:17 48° NNW 17:38:56 10° NNW
USA 267 3.5 17:34:11 48° NNE 17:34:11 48° NNE 17:40:09 10° NW
CZ-4 R/B 3.7 17:41:27 18° NW 17:41:27 18° NW 17:42:40 10° NNW
Meteor 1-11 Rocket 4.0 17:37:19 10° NNW 17:43:05 69° W 17:48:57 10° S
NOSS 3-3 (A) 4.5 17:37:25 10° NW 17:45:07 87° WSW 17:47:58 47° SSE
NOSS 3-3 (C) 4.5 17:37:30 10° NW 17:45:13 88° WSW 17:47:58 48° SSE
Cosmos 44 Rocket 4.0 17:40:59 10° NW 17:45:09 54° WNW 17:45:09 54° WNW
Lacrosse 4 Rocket 3.5 17:45:22 10° SW 17:46:59 23° SW 17:46:59 23° SW
CENTAUR R/B 3.0 18:02:21 10° SW 18:07:45 54° WNW 18:07:45 54° WNW
NOSS 3-2 (C) 4.3 18:10:52 10° WSW 18:15:09 42° W 18:15:09 42° W
